Wetterdaten: Dienstag, 16.07.2013
Datum Zeit Temperatur Luftfeuchte Luftdruck Regen Wind Richtung Richtung Taupunkt Windchill Windben
16.07.2013 00:00 12,9 C 77 % 1026,2 hPa 0,0 l/m 4,2 km/h (1 Bft) NO 45 9,0 C 12,5 C 4,3 km/h (1 Bft)
16.07.2013 00:05 12,7 C 76 % 1026,2 hPa 0,0 l/m 3,9 km/h (1 Bft) O 90 8,6 C 12,4 C 4,0 km/h (1 Bft)
16.07.2013 00:10 12,4 C 76 % 1026,2 hPa 0,0 l/m 3,2 km/h (1 Bft) O 90 8,3 C 12,3 C 1,6 km/h (1 Bft)
16.07.2013 00:15 12,3 C 76 % 1026,2 hPa 0,0 l/m 1,8 km/h (1 Bft) O 90 8,2 C 12,0 C 2,1 km/h (1 Bft)
16.07.2013 00:20 12,1 C 76 % 1025,7 hPa 0,0 l/m 0,8 km/h (0 Bft) NO 45 8,0 C 11,9 C 0,0 km/h (0 Bft)
16.07.2013 00:25 11,9 C 77 % 1025,7 hPa 0,0 l/m 0,2 km/h (0 Bft) NO 45 8,0 C 11,6 C 0,0 km/h (0 Bft)
16.07.2013 00:30 11,9 C 77 % 1025,7 hPa 0,0 l/m 0,0 km/h (0 Bft) NO 45 8,0 C 11,5 C 0,0 km/h (0 Bft)
16.07.2013 00:35 11,8 C 77 % 1025,7 hPa 0,0 l/m 0,0 km/h (0 Bft) NO 45 7,9 C 11,4 C 0,0 km/h (0 Bft)
16.07.2013 00:40 11,8 C 77 % 1026,1 hPa 0,0 l/m 0,0 km/h (0 Bft) NO 45 7,9 C 11,3 C 0,0 km/h (0 Bft)
16.07.2013 00:45 11,7 C 77 % 1026,1 hPa 0,0 l/m 0,0 km/h (0 Bft) NO 45 7,8 C 11,1 C 0,0 km/h (0 Bft)
16.07.2013 00:50 11,5 C 77 % 1026,1 hPa 0,0 l/m 0,0 km/h (0 Bft) NO 45 7,6 C 11,0 C 0,0 km/h (0 Bft)
16.07.2013 00:55 11,4 C 77 % 1026,1 hPa 0,0 l/m 0,0 km/h (0 Bft) N-NO 22 7,5 C 11,0 C 0,0 km/h (0 Bft)
16.07.2013 01:00 11,4 C 78 % 1026,2 hPa 0,0 l/m 0,0 km/h (0 Bft) N-NO 22 7,7 C 10,9 C 0,0 km/h (0 Bft)
16.07.2013 01:05 11,3 C 78 % 1026,2 hPa 0,0 l/m 0,0 km/h (0 Bft) NO 45 7,6 C 10,7 C 0,0 km/h (0 Bft)
16.07.2013 01:10 11,1 C 78 % 1026,2 hPa 0,0 l/m 0,0 km/h (0 Bft) N-NO 22 7,4 C 10,5 C 0,0 km/h (0 Bft)
16.07.2013 01:15 11,1 C 79 % 1026,2 hPa 0,0 l/m 0,0 km/h (0 Bft) N-NO 22 7,6 C 10,5 C 0,0 km/h (0 Bft)
16.07.2013 01:20 11,1 C 79 % 1026,1 hPa 0,0 l/m 0,0 km/h (0 Bft) N-NO 22 7,6 C 10,4 C 0,0 km/h (0 Bft)
16.07.2013 01:25 11,0 C 80 % 1026,1 hPa 0,0 l/m 0,2 km/h (0 Bft) N-NO 22 7,7 C 10,5 C 0,0 km/h (0 Bft)
16.07.2013 01:30 10,9 C 80 % 1026,1 hPa 0,0 l/m 0,2 km/h (0 Bft) NO 45 7,6 C 10,5 C 0,0 km/h (0 Bft)
16.07.2013 01:35 10,9 C 80 % 1026,1 hPa 0,0 l/m 0,0 km/h (0 Bft) N 360 7,6 C 10,3 C 0,0 km/h (0 Bft)
16.07.2013 01:40 10,8 C 80 % 1026,0 hPa 0,0 l/m 0,0 km/h (0 Bft) N 360 7,5 C 10,2 C 0,0 km/h (0 Bft)
16.07.2013 01:45 10,5 C 80 % 1026,0 hPa 0,0 l/m 0,2 km/h (0 Bft) O 90 7,2 C 10,0 C 0,0 km/h (0 Bft)
16.07.2013 01:50 10,4 C 80 % 1026,0 hPa 0,0 l/m 0,2 km/h (0 Bft) O 90 7,1 C 9,9 C 0,0 km/h (0 Bft)
16.07.2013 01:55 10,2 C 81 % 1026,0 hPa 0,0 l/m 0,0 km/h (0 Bft) O 90 7,1 C 9,7 C 0,0 km/h (0 Bft)
16.07.2013 02:00 10,3 C 82 % 1025,8 hPa 0,0 l/m 0,0 km/h (0 Bft) NO 45 7,4 C 9,6 C 0,0 km/h (0 Bft)
16.07.2013 02:05 10,2 C 82 % 1025,8 hPa 0,0 l/m 0,0 km/h (0 Bft) NO 45 7,3 C 9,5 C 0,0 km/h (0 Bft)
16.07.2013 02:10 10,2 C 82 % 1025,8 hPa 0,0 l/m 0,0 km/h (0 Bft) NO 45 7,3 C 9,3 C 0,0 km/h (0 Bft)
16.07.2013 02:15 10,2 C 83 % 1025,8 hPa 0,0 l/m 0,0 km/h (0 Bft) N-NO 22 7,4 C 9,3 C 0,0 km/h (0 Bft)
16.07.2013 02:20 10,1 C 83 % 1025,4 hPa 0,0 l/m 0,0 km/h (0 Bft) NO 45 7,3 C 9,4 C 0,0 km/h (0 Bft)
16.07.2013 02:25 10,1 C 83 % 1025,4 hPa 0,0 l/m 0,0 km/h (0 Bft) O-NO 67 7,3 C 9,3 C 0,0 km/h (0 Bft)
16.07.2013 02:30 10,0 C 83 % 1025,4 hPa 0,0 l/m 0,0 km/h (0 Bft) O-NO 67 7,2 C 9,3 C 0,0 km/h (0 Bft)
16.07.2013 02:35 9,8 C 83 % 1025,4 hPa 0,0 l/m 0,0 km/h (0 Bft) NO 45 7,1 C 9,1 C 0,0 km/h (0 Bft)
16.07.2013 02:40 9,9 C 83 % 1025,9 hPa 0,0 l/m 0,0 km/h (0 Bft) O 90 7,2 C 9,1 C 0,0 km/h (0 Bft)
16.07.2013 02:45 9,7 C 83 % 1025,9 hPa 0,0 l/m 0,0 km/h (0 Bft) N-NO 22 7,0 C 9,0 C 0,0 km/h (0 Bft)
16.07.2013 02:50 9,6 C 83 % 1025,9 hPa 0,0 l/m 0,0 km/h (0 Bft) N-NO 22 6,9 C 9,0 C 0,0 km/h (0 Bft)
16.07.2013 02:55 9,5 C 84 % 1025,9 hPa 0,0 l/m 0,0 km/h (0 Bft) N-NO 22 6,9 C 8,8 C 0,0 km/h (0 Bft)
16.07.2013 03:00 9,4 C 84 % 1025,9 hPa 0,0 l/m 0,0 km/h (0 Bft) N-NO 22 6,8 C 8,8 C 0,0 km/h (0 Bft)
16.07.2013 03:05 9,4 C 84 % 1025,9 hPa 0,0 l/m 0,0 km/h (0 Bft) NO 45 6,8 C 8,8 C 0,0 km/h (0 Bft)
16.07.2013 03:10 9,3 C 84 % 1025,9 hPa 0,0 l/m 0,0 km/h (0 Bft) NO 45 6,7 C 8,7 C 0,0 km/h (0 Bft)
16.07.2013 03:15 9,2 C 85 % 1025,9 hPa 0,0 l/m 0,0 km/h (0 Bft) N 360 6,8 C 8,7 C 0,0 km/h (0 Bft)
16.07.2013 03:20 9,2 C 85 % 1025,4 hPa 0,0 l/m 0,0 km/h (0 Bft) N-NO 22 6,8 C 8,6 C 0,0 km/h (0 Bft)
16.07.2013 03:25 9,1 C 85 % 1025,4 hPa 0,0 l/m 0,0 km/h (0 Bft) N-NO 22 6,7 C 8,6 C 0,0 km/h (0 Bft)
16.07.2013 03:30 9,0 C 85 % 1025,4 hPa 0,0 l/m 0,0 km/h (0 Bft) NO 45 6,6 C 8,5 C 0,0 km/h (0 Bft)
16.07.2013 03:35 9,1 C 86 % 1025,4 hPa 0,0 l/m 0,0 km/h (0 Bft) N-NO 22 6,9 C 8,4 C 0,0 km/h (0 Bft)
16.07.2013 03:40 9,3 C 86 % 1025,4 hPa 0,0 l/m 0,0 km/h (0 Bft) N-NO 22 7,1 C 8,4 C 0,0 km/h (0 Bft)
16.07.2013 03:45 9,5 C 86 % 1025,4 hPa 0,0 l/m 0,0 km/h (0 Bft) N 360 7,3 C 8,5 C 0,0 km/h (0 Bft)
16.07.2013 03:50 9,3 C 86 % 1025,4 hPa 0,0 l/m 0,0 km/h (0 Bft) N 360 7,1 C 8,5 C 0,0 km/h (0 Bft)
16.07.2013 03:55 9,1 C 86 % 1025,4 hPa 0,0 l/m 0,0 km/h (0 Bft) N-NW 337 6,9 C 8,4 C 0,0 km/h (0 Bft)
16.07.2013 04:00 8,9 C 86 % 1025,4 hPa 0,0 l/m 0,0 km/h (0 Bft) N-NO 22 6,7 C 8,3 C 0,0 km/h (0 Bft)
16.07.2013 04:05 9,1 C 86 % 1025,4 hPa 0,0 l/m 0,0 km/h (0 Bft) N-NO 22 6,9 C 8,3 C 0,0 km/h (0 Bft)
16.07.2013 04:10 9,0 C 86 % 1025,4 hPa 0,0 l/m 0,0 km/h (0 Bft) NO 45 6,8 C 8,3 C 0,0 km/h (0 Bft)
16.07.2013 04:15 9,1 C 86 % 1025,4 hPa 0,0 l/m 0,0 km/h (0 Bft) NO 45 6,9 C 8,3 C 0,0 km/h (0 Bft)
16.07.2013 04:20 8,9 C 86 % 1025,4 hPa 0,0 l/m 0,0 km/h (0 Bft) NO 45 6,7 C 8,3 C 0,0 km/h (0 Bft)
16.07.2013 04:25 9,0 C 86 % 1025,4 hPa 0,0 l/m 0,0 km/h (0 Bft) O 90 6,8 C 8,3 C 0,0 km/h (0 Bft)
16.07.2013 04:30 9,0 C 86 % 1025,4 hPa 0,0 l/m 0,0 km/h (0 Bft) O 90 6,8 C 8,3 C 0,0 km/h (0 Bft)
16.07.2013 04:35 8,8 C 86 % 1025,4 hPa 0,0 l/m 0,0 km/h (0 Bft) N 360 6,6 C 8,2 C 0,0 km/h (0 Bft)
16.07.2013 04:40 8,8 C 86 % 1025,2 hPa 0,0 l/m 0,0 km/h (0 Bft) NO 45 6,6 C 8,1 C 0,0 km/h (0 Bft)
16.07.2013 04:45 8,6 C 87 % 1025,2 hPa 0,0 l/m 0,0 km/h (0 Bft) N-NW 337 6,6 C 8,0 C 0,0 km/h (0 Bft)
16.07.2013 04:50 8,5 C 87 % 1025,2 hPa 0,0 l/m 0,0 km/h (0 Bft) N-NO 22 6,5 C 8,0 C 0,0 km/h (0 Bft)
16.07.2013 04:55 8,6 C 87 % 1025,2 hPa 0,0 l/m 0,0 km/h (0 Bft) N-NO 22 6,6 C 7,9 C 0,0 km/h (0 Bft)
16.07.2013 05:00 8,5 C 87 % 1025,7 hPa 0,0 l/m 0,0 km/h (0 Bft) N 360 6,5 C 7,9 C 0,0 km/h (0 Bft)
16.07.2013 05:05 8,3 C 87 % 1025,7 hPa 0,0 l/m 0,0 km/h (0 Bft) W-NW 292 6,3 C 7,9 C 0,0 km/h (0 Bft)
16.07.2013 05:10 8,3 C 87 % 1025,7 hPa 0,0 l/m 0,0 km/h (0 Bft) N 360 6,3 C 7,9 C 0,0 km/h (0 Bft)
16.07.2013 05:15 8,3 C 87 % 1025,7 hPa 0,0 l/m 0,0 km/h (0 Bft) N-NO 22 6,3 C 7,8 C 0,0 km/h (0 Bft)
16.07.2013 05:20 8,3 C 88 % 1025,6 hPa 0,0 l/m 0,0 km/h (0 Bft) N-NO 22 6,4 C 7,8 C 0,0 km/h (0 Bft)
16.07.2013 05:25 8,4 C 88 % 1025,6 hPa 0,0 l/m 0,0 km/h (0 Bft) NO 45 6,5 C 7,8 C 0,0 km/h (0 Bft)
16.07.2013 05:30 8,3 C 88 % 1025,6 hPa 0,0 l/m 0,0 km/h (0 Bft) NO 45 6,4 C 7,7 C 0,0 km/h (0 Bft)
16.07.2013 05:35 8,2 C 88 % 1025,6 hPa 0,0 l/m 0,0 km/h (0 Bft) NO 45 6,3 C 7,7 C 0,0 km/h (0 Bft)
16.07.2013 05:40 8,2 C 88 % 1025,1 hPa 0,0 l/m 0,0 km/h (0 Bft) W-NW 292 6,3 C 7,7 C 0,0 km/h (0 Bft)
16.07.2013 05:45 8,2 C 88 % 1025,1 hPa 0,0 l/m 0,2 km/h (0 Bft) NO 45 6,3 C 7,7 C 1,6 km/h (1 Bft)
16.07.2013 05:50 8,4 C 89 % 1025,1 hPa 0,0 l/m 0,3 km/h (0 Bft) N-NO 22 6,7 C 7,8 C 0,0 km/h (0 Bft)
16.07.2013 05:55 8,3 C 89 % 1025,1 hPa 0,0 l/m 0,2 km/h (0 Bft) N 360 6,6 C 7,9 C 0,0 km/h (0 Bft)
16.07.2013 06:00 8,5 C 89 % 1025,1 hPa 0,0 l/m 0,0 km/h (0 Bft) N 360 6,8 C 8,1 C 0,0 km/h (0 Bft)
16.07.2013 06:05 8,6 C 89 % 1025,1 hPa 0,0 l/m 0,0 km/h (0 Bft) N 360 6,9 C 8,9 C 0,0 km/h (0 Bft)
16.07.2013 06:10 8,7 C 89 % 1025,1 hPa 0,0 l/m 0,0 km/h (0 Bft) W-NW 292 7,0 C 9,4 C 0,0 km/h (0 Bft)
16.07.2013 06:15 9,6 C 88 % 1025,1 hPa 0,0 l/m 0,0 km/h (0 Bft) N-NO 22 7,7 C 9,9 C 0,0 km/h (0 Bft)
16.07.2013 06:20 10,9 C 88 % 1025,2 hPa 0,0 l/m 0,0 km/h (0 Bft) N-NO 22 9,0 C 10,3 C 0,0 km/h (0 Bft)
16.07.2013 06:25 11,7 C 86 % 1025,2 hPa 0,0 l/m 0,0 km/h (0 Bft) N-NO 22 9,4 C 10,6 C 0,0 km/h (0 Bft)
16.07.2013 06:30 12,5 C 85 % 1025,2 hPa 0,0 l/m 0,0 km/h (0 Bft) O 90 10,0 C 10,8 C 0,0 km/h (0 Bft)
16.07.2013 06:35 12,2 C 84 % 1025,2 hPa 0,0 l/m 0,2 km/h (0 Bft) N-NO 22 9,6 C 12,0 C 0,0 km/h (0 Bft)
16.07.2013 06:40 11,8 C 83 % 1025,1 hPa 0,0 l/m 0,2 km/h (0 Bft) O 90 9,0 C 12,7 C 0,0 km/h (0 Bft)
16.07.2013 06:45 14,0 C 81 % 1025,1 hPa 0,0 l/m 0,3 km/h (0 Bft) W-SW 247 10,8 C 13,7 C 0,0 km/h (0 Bft)
16.07.2013 06:50 14,7 C 78 % 1025,1 hPa 0,0 l/m 0,2 km/h (0 Bft) W-SW 247 10,9 C 14,4 C 0,0 km/h (0 Bft)
16.07.2013 06:55 15,3 C 74 % 1025,1 hPa 0,0 l/m 0,0 km/h (0 Bft) W 270 10,7 C 15,5 C 0,0 km/h (0 Bft)
16.07.2013 07:00 15,1 C 69 % 1025,1 hPa 0,0 l/m 0,0 km/h (0 Bft) N-NW 337 9,5 C 15,8 C 0,0 km/h (0 Bft)
16.07.2013 07:05 16,2 C 69 % 1025,1 hPa 0,0 l/m 0,0 km/h (0 Bft) O 90 10,5 C 16,4 C 0,0 km/h (0 Bft)
16.07.2013 07:10 17,5 C 69 % 1025,1 hPa 0,0 l/m 0,0 km/h (0 Bft) S-SO 157 11,7 C 16,9 C 0,0 km/h (0 Bft)
16.07.2013 07:15 17,8 C 67 % 1025,1 hPa 0,0 l/m 0,0 km/h (0 Bft) O 90 11,6 C 17,9 C 0,0 km/h (0 Bft)
16.07.2013 07:20 17,5 C 62 % 1025,1 hPa 0,0 l/m 0,0 km/h (0 Bft) W-NW 292 10,1 C 18,5 C 0,0 km/h (0 Bft)
16.07.2013 07:25 18,5 C 62 % 1025,1 hPa 0,0 l/m 0,0 km/h (0 Bft) W-NW 292 11,1 C 19,5 C 0,0 km/h (0 Bft)
16.07.2013 07:30 19,8 C 63 % 1025,1 hPa 0,0 l/m 0,0 km/h (0 Bft) S-SW 202 12,5 C 20,1 C 0,0 km/h (0 Bft)
16.07.2013 07:35 20,0 C 61 % 1025,1 hPa 0,0 l/m 0,0 km/h (0 Bft) W-SW 247 12,2 C 20,6 C 0,0 km/h (0 Bft)
16.07.2013 07:40 19,9 C 57 % 1025,1 hPa 0,0 l/m 0,0 km/h (0 Bft) W-SW 247 11,1 C 20,6 C 1,6 km/h (1 Bft)
16.07.2013 07:45 19,7 C 58 % 1025,1 hPa 0,0 l/m 0,2 km/h (0 Bft) N-NW 337 11,2 C 21,0 C 0,0 km/h (0 Bft)
16.07.2013 07:50 20,4 C 58 % 1025,1 hPa 0,0 l/m 0,2 km/h (0 Bft) W-SW 247 11,9 C 21,1 C 0,0 km/h (0 Bft)
16.07.2013 07:55 21,4 C 58 % 1025,1 hPa 0,0 l/m 0,2 km/h (0 Bft) W 270 12,8 C 21,8 C 0,0 km/h (0 Bft)
16.07.2013 08:00 22,3 C 57 % 1025,2 hPa 0,0 l/m 0,0 km/h (0 Bft) W-SW 247 13,4 C 22,2 C 0,0 km/h (0 Bft)
16.07.2013 08:05 21,5 C 54 % 1025,2 hPa 0,0 l/m 0,0 km/h (0 Bft) W-SW 247 11,8 C 23,0 C 0,0 km/h (0 Bft)
16.07.2013 08:10 21,5 C 56 % 1025,2 hPa 0,0 l/m 0,0 km/h (0 Bft) N 360 12,3 C 23,2 C 0,0 km/h (0 Bft)
16.07.2013 08:15 23,2 C 54 % 1025,2 hPa 0,0 l/m 0,0 km/h (0 Bft) W-NW 292 13,4 C 23,9 C 0,0 km/h (0 Bft)
16.07.2013 08:20 22,9 C 55 % 1025,2 hPa 0,0 l/m 0,0 km/h (0 Bft) W-SW 247 13,4 C 23,9 C 0,0 km/h (0 Bft)
16.07.2013 08:25 22,9 C 53 % 1025,2 hPa 0,0 l/m 0,2 km/h (0 Bft) W-NW 292 12,8 C 24,2 C 0,0 km/h (0 Bft)
16.07.2013 08:30 23,9 C 53 % 1025,2 hPa 0,0 l/m 0,2 km/h (0 Bft) W-SW 247 13,7 C 24,4 C 1,9 km/h (1 Bft)
16.07.2013 08:35 23,9 C 48 % 1025,2 hPa 0,0 l/m 0,6 km/h (0 Bft) W 270 12,2 C 24,5 C 3,2 km/h (1 Bft)
16.07.2013 08:40 24,1 C 48 % 1025,4 hPa 0,0 l/m 1,0 km/h (0 Bft) N 360 12,4 C 24,4 C 0,0 km/h (0 Bft)
16.07.2013 08:45 24,4 C 48 % 1025,4 hPa 0,0 l/m 0,8 km/h (0 Bft) O 90 12,7 C 24,9 C 1,6 km/h (1 Bft)
16.07.2013 08:50 23,9 C 48 % 1025,4 hPa 0,0 l/m 0,8 km/h (0 Bft) W-NW 292 12,2 C 25,1 C 3,1 km/h (1 Bft)
16.07.2013 08:55 25,2 C 45 % 1025,4 hPa 0,0 l/m 1,4 km/h (1 Bft) N-NW 337 12,4 C 24,9 C 3,4 km/h (1 Bft)
16.07.2013 09:00 24,5 C 46 % 1025,6 hPa 0,0 l/m 1,8 km/h (1 Bft) W-NW 292 12,1 C 24,8 C 2,7 km/h (1 Bft)
16.07.2013 09:05 24,6 C 45 % 1025,6 hPa 0,0 l/m 2,6 km/h (1 Bft) W 270 11,9 C 24,5 C 5,6 km/h (1 Bft)
16.07.2013 09:10 24,5 C 42 % 1025,6 hPa 0,0 l/m 3,1 km/h (1 Bft) N-NO 22 10,7 C 24,5 C 4,5 km/h (1 Bft)
16.07.2013 09:15 24,2 C 43 % 1025,6 hPa 0,0 l/m 3,1 km/h (1 Bft) W-NW 292 10,8 C 24,4 C 6,9 km/h (2 Bft)
16.07.2013 09:20 24,2 C 43 % 1026,1 hPa 0,0 l/m 2,9 km/h (1 Bft) N 360 10,8 C 24,7 C 6,8 km/h (2 Bft)
16.07.2013 09:25 24,1 C 42 % 1026,1 hPa 0,0 l/m 2,4 km/h (1 Bft) NO 45 10,4 C 24,9 C 4,7 km/h (1 Bft)
16.07.2013 09:30 24,6 C 43 % 1026,1 hPa 0,0 l/m 3,2 km/h (1 Bft) NW 315 11,2 C 24,8 C 7,1 km/h (2 Bft)
16.07.2013 09:35 24,7 C 42 % 1026,1 hPa 0,0 l/m 4,2 km/h (1 Bft) W-NW 292 10,9 C 24,3 C 7,4 km/h (2 Bft)
16.07.2013 09:40 24,5 C 42 % 1026,4 hPa 0,0 l/m 4,3 km/h (1 Bft) NO 45 10,7 C 24,0 C 4,5 km/h (1 Bft)
16.07.2013 09:45 24,5 C 41 % 1026,4 hPa 0,0 l/m 4,0 km/h (1 Bft) N-NO 22 10,4 C 24,2 C 7,7 km/h (2 Bft)
16.07.2013 09:50 24,1 C 41 % 1026,4 hPa 0,0 l/m 4,0 km/h (1 Bft) NO 45 10,0 C 24,2 C 5,5 km/h (1 Bft)
16.07.2013 09:55 24,1 C 40 % 1026,4 hPa 0,0 l/m 4,7 km/h (1 Bft) N-NO 22 9,6 C 24,0 C 9,0 km/h (2 Bft)
16.07.2013 10:00 24,0 C 41 % 1026,5 hPa 0,0 l/m 5,0 km/h (1 Bft) N-NW 337 9,9 C 24,0 C 7,7 km/h (2 Bft)
16.07.2013 10:05 24,3 C 42 % 1026,5 hPa 0,0 l/m 4,3 km/h (1 Bft) O 90 10,6 C 24,1 C 5,3 km/h (1 Bft)
16.07.2013 10:10 23,8 C 43 % 1026,5 hPa 0,0 l/m 4,3 km/h (1 Bft) W-NW 292 10,5 C 24,2 C 4,8 km/h (1 Bft)
16.07.2013 10:15 24,1 C 41 % 1026,5 hPa 0,0 l/m 4,8 km/h (1 Bft) W-NW 292 10,0 C 24,2 C 7,6 km/h (2 Bft)
16.07.2013 10:20 24,3 C 42 % 1026,4 hPa 0,0 l/m 4,5 km/h (1 Bft) W 270 10,6 C 24,3 C 6,8 km/h (2 Bft)
16.07.2013 10:25 23,9 C 41 % 1026,4 hPa 0,0 l/m 4,7 km/h (1 Bft) W-NW 292 9,8 C 24,6 C 6,4 km/h (2 Bft)
16.07.2013 10:30 23,9 C 40 % 1026,4 hPa 0,0 l/m 5,0 km/h (1 Bft) N-NW 337 9,5 C 24,4 C 10,3 km/h (2 Bft)
16.07.2013 10:35 24,1 C 41 % 1026,4 hPa 0,0 l/m 5,1 km/h (1 Bft) W 270 10,0 C 24,4 C 11,1 km/h (2 Bft)
16.07.2013 10:40 23,8 C 42 % 1026,4 hPa 0,0 l/m 5,0 km/h (1 Bft) NW 315 10,1 C 24,4 C 2,7 km/h (1 Bft)
16.07.2013 10:45 24,1 C 41 % 1026,4 hPa 0,0 l/m 5,0 km/h (1 Bft) W-NW 292 10,0 C 24,7 C 7,1 km/h (2 Bft)
16.07.2013 10:50 24,1 C 40 % 1026,4 hPa 0,0 l/m 4,8 km/h (1 Bft) W 270 9,6 C 24,6 C 6,1 km/h (2 Bft)
16.07.2013 10:55 24,8 C 42 % 1026,4 hPa 0,0 l/m 4,7 km/h (1 Bft) NO 45 11,0 C 24,9 C 6,9 km/h (2 Bft)
16.07.2013 11:00 24,9 C 40 % 1026,6 hPa 0,0 l/m 4,5 km/h (1 Bft) W 270 10,4 C 25,2 C 3,7 km/h (1 Bft)
16.07.2013 11:05 24,9 C 38 % 1026,6 hPa 0,0 l/m 5,0 km/h (1 Bft) W 270 9,6 C 25,2 C 5,0 km/h (1 Bft)
16.07.2013 11:10 24,7 C 40 % 1026,6 hPa 0,0 l/m 5,0 km/h (1 Bft) N 360 10,2 C 25,1 C 4,2 km/h (1 Bft)
16.07.2013 11:15 24,9 C 39 % 1026,6 hPa 0,0 l/m 4,8 km/h (1 Bft) W-NW 292 10,0 C 25,1 C 3,5 km/h (1 Bft)
16.07.2013 11:20 25,1 C 38 % 1026,7 hPa 0,0 l/m 4,5 km/h (1 Bft) N-NW 337 9,8 C 25,3 C 8,0 km/h (2 Bft)
16.07.2013 11:25 25,7 C 38 % 1026,7 hPa 0,0 l/m 4,0 km/h (1 Bft) N-NW 337 10,3 C 25,6 C 9,3 km/h (2 Bft)
16.07.2013 11:30 25,5 C 38 % 1026,7 hPa 0,0 l/m 4,2 km/h (1 Bft) O-SO 112 10,1 C 25,9 C 2,6 km/h (1 Bft)
16.07.2013 11:35 25,7 C 39 % 1026,7 hPa 0,0 l/m 4,0 km/h (1 Bft) W-NW 292 10,7 C 26,1 C 4,2 km/h (1 Bft)
16.07.2013 11:40 26,0 C 38 % 1026,6 hPa 0,0 l/m 4,7 km/h (1 Bft) O-NO 67 10,6 C 25,9 C 5,5 km/h (1 Bft)
16.07.2013 11:45 25,1 C 38 % 1026,6 hPa 0,0 l/m 5,5 km/h (1 Bft) N-NW 337 9,8 C 25,8 C 12,7 km/h (3 Bft)
16.07.2013 11:50 26,1 C 37 % 1026,6 hPa 0,0 l/m 5,1 km/h (1 Bft) N-NW 337 10,3 C 25,8 C 5,0 km/h (1 Bft)
16.07.2013 11:55 26,1 C 38 % 1026,6 hPa 0,0 l/m 4,5 km/h (1 Bft) NW 315 10,7 C 25,9 C 2,6 km/h (1 Bft)
16.07.2013 12:00 26,0 C 36 % 1026,8 hPa 0,0 l/m 4,8 km/h (1 Bft) W-NW 292 9,8 C 26,2 C 5,6 km/h (1 Bft)
16.07.2013 12:05 25,9 C 37 % 1026,8 hPa 0,0 l/m 4,8 km/h (1 Bft) W-SW 247 10,1 C 26,2 C 8,2 km/h (2 Bft)
16.07.2013 12:10 25,8 C 38 % 1026,8 hPa 0,0 l/m 4,5 km/h (1 Bft) N-NW 337 10,4 C 26,4 C 7,6 km/h (2 Bft)
16.07.2013 12:15 25,9 C 38 % 1026,8 hPa 0,0 l/m 4,2 km/h (1 Bft) W 270 10,5 C 26,4 C 4,3 km/h (1 Bft)
16.07.2013 12:20 26,6 C 37 % 1026,4 hPa 0,0 l/m 3,4 km/h (1 Bft) NO 45 10,7 C 26,9 C 1,9 km/h (1 Bft)
16.07.2013 12:25 25,7 C 36 % 1026,4 hPa 0,0 l/m 3,9 km/h (1 Bft) N-NW 337 9,5 C 27,1 C 5,8 km/h (2 Bft)
16.07.2013 12:30 25,4 C 38 % 1026,4 hPa 0,0 l/m 5,1 km/h (1 Bft) N 360 10,0 C 27,0 C 13,4 km/h (3 Bft)
16.07.2013 12:35 25,5 C 37 % 1026,4 hPa 0,0 l/m 5,6 km/h (1 Bft) W 270 9,7 C 26,4 C 4,8 km/h (1 Bft)
16.07.2013 12:40 26,1 C 37 % 1026,4 hPa 0,0 l/m 5,0 km/h (1 Bft) N-NW 337 10,3 C 26,6 C 3,5 km/h (1 Bft)
16.07.2013 12:45 25,7 C 37 % 1026,4 hPa 0,0 l/m 4,2 km/h (1 Bft) N-NO 22 9,9 C 26,8 C 7,6 km/h (2 Bft)
16.07.2013 12:50 25,8 C 36 % 1026,4 hPa 0,0 l/m 5,1 km/h (1 Bft) W 270 9,6 C 26,7 C 8,4 km/h (2 Bft)
16.07.2013 12:55 26,2 C 36 % 1026,4 hPa 0,0 l/m 5,8 km/h (2 Bft) W-SW 247 9,9 C 26,6 C 4,5 km/h (1 Bft)
16.07.2013 13:00 26,6 C 37 % 1026,4 hPa 0,0 l/m 5,6 km/h (1 Bft) N-NO 22 10,7 C 26,5 C 4,2 km/h (1 Bft)
16.07.2013 13:05 25,5 C 36 % 1026,4 hPa 0,0 l/m 5,5 km/h (1 Bft) N-NW 337 9,3 C 26,6 C 7,6 km/h (2 Bft)
16.07.2013 13:10 25,3 C 37 % 1026,4 hPa 0,0 l/m 5,8 km/h (2 Bft) N-NO 22 9,6 C 26,5 C 7,1 km/h (2 Bft)
16.07.2013 13:15 25,0 C 36 % 1026,4 hPa 0,0 l/m 5,8 km/h (2 Bft) W-NW 292 8,9 C 26,5 C 7,1 km/h (2 Bft)
16.07.2013 13:20 25,1 C 36 % 1026,4 hPa 0,0 l/m 4,7 km/h (1 Bft) NW 315 9,0 C 26,6 C 2,7 km/h (1 Bft)
16.07.2013 13:25 25,8 C 36 % 1026,4 hPa 0,0 l/m 4,0 km/h (1 Bft) N 360 9,6 C 27,1 C 4,7 km/h (1 Bft)
16.07.2013 13:30 25,8 C 36 % 1026,4 hPa 0,0 l/m 4,2 km/h (1 Bft) NW 315 9,6 C 27,3 C 4,3 km/h (1 Bft)
16.07.2013 13:35 25,5 C 36 % 1026,4 hPa 0,0 l/m 4,3 km/h (1 Bft) W 270 9,3 C 27,4 C 8,0 km/h (2 Bft)
16.07.2013 13:40 26,1 C 36 % 1026,4 hPa 0,0 l/m 5,0 km/h (1 Bft) W-NW 292 9,8 C 27,1 C 11,1 km/h (2 Bft)
16.07.2013 13:45 25,5 C 35 % 1026,4 hPa 0,0 l/m 5,8 km/h (2 Bft) NO 45 8,9 C 27,1 C 10,1 km/h (2 Bft)
16.07.2013 13:50 26,0 C 36 % 1026,4 hPa 0,0 l/m 5,3 km/h (1 Bft) W-SW 247 9,8 C 27,1 C 10,6 km/h (2 Bft)
16.07.2013 13:55 26,1 C 35 % 1026,4 hPa 0,0 l/m 6,1 km/h (2 Bft) W-NW 292 9,4 C 26,8 C 6,3 km/h (2 Bft)
16.07.2013 14:00 26,0 C 36 % 1026,2 hPa 0,0 l/m 6,0 km/h (2 Bft) W-NW 292 9,8 C 26,8 C 2,7 km/h (1 Bft)
16.07.2013 14:05 25,9 C 37 % 1026,2 hPa 0,0 l/m 5,0 km/h (1 Bft) N-NW 337 10,1 C 27,2 C 5,3 km/h (1 Bft)
16.07.2013 14:10 26,3 C 36 % 1026,2 hPa 0,0 l/m 4,7 km/h (1 Bft) W-NW 292 10,0 C 27,5 C 8,4 km/h (2 Bft)
16.07.2013 14:15 26,0 C 37 % 1026,2 hPa 0,0 l/m 4,7 km/h (1 Bft) N-NW 337 10,2 C 27,8 C 11,1 km/h (2 Bft)
16.07.2013 14:20 25,8 C 35 % 1026,1 hPa 0,0 l/m 5,6 km/h (1 Bft) N-NW 337 9,2 C 27,7 C 7,2 km/h (2 Bft)
16.07.2013 14:25 26,8 C 35 % 1026,1 hPa 0,0 l/m 5,0 km/h (1 Bft) W 270 10,0 C 27,9 C 5,3 km/h (1 Bft)
16.07.2013 14:30 26,9 C 34 % 1026,1 hPa 0,0 l/m 4,3 km/h (1 Bft) W 270 9,7 C 27,9 C 2,4 km/h (1 Bft)
16.07.2013 14:35 26,3 C 34 % 1026,1 hPa 0,0 l/m 4,3 km/h (1 Bft) W-NW 292 9,2 C 28,4 C 7,6 km/h (2 Bft)
16.07.2013 14:40 26,3 C 34 % 1026,0 hPa 0,0 l/m 4,7 km/h (1 Bft) N-NW 337 9,2 C 28,3 C 5,0 km/h (1 Bft)
16.07.2013 14:45 26,6 C 34 % 1026,0 hPa 0,0 l/m 5,5 km/h (1 Bft) W-NW 292 9,4 C 28,6 C 10,9 km/h (2 Bft)
16.07.2013 14:50 26,8 C 35 % 1026,0 hPa 0,0 l/m 5,0 km/h (1 Bft) N 360 10,0 C 28,5 C 9,3 km/h (2 Bft)
16.07.2013 14:55 26,4 C 35 % 1026,0 hPa 0,0 l/m 5,8 km/h (2 Bft) W-SW 247 9,7 C 28,1 C 5,6 km/h (1 Bft)
16.07.2013 15:00 27,0 C 34 % 1026,0 hPa 0,0 l/m 5,1 km/h (1 Bft) W 270 9,8 C 28,3 C 3,9 km/h (1 Bft)
16.07.2013 15:05 26,6 C 33 % 1026,0 hPa 0,0 l/m 4,7 km/h (1 Bft) W 270 9,0 C 28,3 C 3,9 km/h (1 Bft)
16.07.2013 15:10 26,9 C 33 % 1026,0 hPa 0,0 l/m 5,0 km/h (1 Bft) N 360 9,3 C 28,5 C 6,4 km/h (2 Bft)
16.07.2013 15:15 26,3 C 33 % 1026,0 hPa 0,0 l/m 5,1 km/h (1 Bft) W 270 8,7 C 28,7 C 8,2 km/h (2 Bft)
16.07.2013 15:20 26,8 C 33 % 1025,9 hPa 0,0 l/m 5,6 km/h (1 Bft) N-NO 22 9,2 C 28,4 C 5,8 km/h (2 Bft)
16.07.2013 15:25 26,5 C 33 % 1025,9 hPa 0,0 l/m 6,0 km/h (2 Bft) W-NW 292 8,9 C 28,3 C 5,6 km/h (1 Bft)
16.07.2013 15:30 26,8 C 32 % 1025,9 hPa 0,0 l/m 5,1 km/h (1 Bft) W 270 8,7 C 28,6 C 6,4 km/h (2 Bft)
16.07.2013 15:35 27,1 C 32 % 1025,9 hPa 0,0 l/m 4,3 km/h (1 Bft) N-NW 337 9,0 C 28,9 C 10,9 km/h (2 Bft)
16.07.2013 15:40 26,8 C 31 % 1025,9 hPa 0,0 l/m 4,5 km/h (1 Bft) SW 225 8,2 C 29,1 C 4,0 km/h (1 Bft)
16.07.2013 15:45 26,7 C 33 % 1025,9 hPa 0,0 l/m 4,0 km/h (1 Bft) N 360 9,1 C 29,3 C 4,2 km/h (1 Bft)
16.07.2013 15:50 27,0 C 33 % 1025,9 hPa 0,0 l/m 4,0 km/h (1 Bft) N-NW 337 9,3 C 29,4 C 7,9 km/h (2 Bft)
16.07.2013 15:55 27,3 C 32 % 1025,9 hPa 0,0 l/m 4,0 km/h (1 Bft) W-SW 247 9,1 C 29,4 C 7,6 km/h (2 Bft)
16.07.2013 16:00 27,0 C 31 % 1025,9 hPa 0,0 l/m 4,5 km/h (1 Bft) W 270 8,4 C 29,6 C 4,8 km/h (1 Bft)
16.07.2013 16:05 27,0 C 32 % 1025,9 hPa 0,0 l/m 4,3 km/h (1 Bft) N 360 8,9 C 29,6 C 5,6 km/h (1 Bft)
16.07.2013 16:10 26,7 C 32 % 1025,9 hPa 0,0 l/m 4,0 km/h (1 Bft) W-NW 292 8,6 C 29,6 C 3,1 km/h (1 Bft)
16.07.2013 16:15 26,9 C 31 % 1025,9 hPa 0,0 l/m 3,9 km/h (1 Bft) W 270 8,3 C 29,8 C 2,1 km/h (1 Bft)
16.07.2013 16:20 27,1 C 31 % 1025,8 hPa 0,0 l/m 3,1 km/h (1 Bft) O-SO 112 8,5 C 30,3 C 3,1 km/h (1 Bft)
16.07.2013 16:25 26,5 C 31 % 1025,8 hPa 0,0 l/m 2,7 km/h (1 Bft) N-NW 337 8,0 C 30,6 C 3,2 km/h (1 Bft)
16.07.2013 16:30 26,4 C 31 % 1025,8 hPa 0,0 l/m 4,5 km/h (1 Bft) S-SW 202 7,9 C 30,5 C 11,4 km/h (2 Bft)
16.07.2013 16:35 26,1 C 31 % 1025,8 hPa 0,0 l/m 5,6 km/h (1 Bft) W-SW 247 7,6 C 29,7 C 6,8 km/h (2 Bft)
16.07.2013 16:40 26,1 C 32 % 1025,6 hPa 0,0 l/m 5,0 km/h (1 Bft) W-NW 292 8,1 C 29,9 C 5,1 km/h (1 Bft)
16.07.2013 16:45 26,0 C 32 % 1025,6 hPa 0,0 l/m 4,8 km/h (1 Bft) S-SW 202 8,0 C 29,7 C 6,6 km/h (2 Bft)
16.07.2013 16:50 25,5 C 31 % 1025,6 hPa 0,0 l/m 5,6 km/h (1 Bft) N-NW 337 7,1 C 29,5 C 5,3 km/h (1 Bft)
16.07.2013 16:55 25,2 C 31 % 1025,6 hPa 0,0 l/m 5,3 km/h (1 Bft) W-SW 247 6,9 C 29,5 C 6,4 km/h (2 Bft)
16.07.2013 17:00 25,0 C 32 % 1025,8 hPa 0,0 l/m 4,7 km/h (1 Bft) W-NW 292 7,1 C 29,7 C 5,3 km/h (1 Bft)
16.07.2013 17:05 24,8 C 32 % 1025,8 hPa 0,0 l/m 5,5 km/h (1 Bft) W-NW 292 7,0 C 29,5 C 9,7 km/h (2 Bft)
16.07.2013 17:10 24,7 C 31 % 1025,8 hPa 0,0 l/m 6,3 km/h (2 Bft) W 270 6,4 C 29,3 C 3,7 km/h (1 Bft)
16.07.2013 17:15 24,6 C 32 % 1025,8 hPa 0,0 l/m 5,6 km/h (1 Bft) S-SO 157 6,8 C 29,5 C 8,2 km/h (2 Bft)
16.07.2013 17:20 24,6 C 32 % 1025,6 hPa 0,0 l/m 5,1 km/h (1 Bft) N-NW 337 6,8 C 29,6 C 5,8 km/h (2 Bft)
16.07.2013 17:25 24,5 C 32 % 1025,6 hPa 0,0 l/m 4,7 km/h (1 Bft) NW 315 6,7 C 29,8 C 7,1 km/h (2 Bft)
16.07.2013 17:30 24,5 C 32 % 1025,6 hPa 0,0 l/m 5,0 km/h (1 Bft) N-NW 337 6,7 C 29,8 C 5,5 km/h (1 Bft)
16.07.2013 17:35 24,4 C 32 % 1025,6 hPa 0,0 l/m 4,5 km/h (1 Bft) W-SW 247 6,6 C 29,8 C 3,1 km/h (1 Bft)
16.07.2013 17:40 24,3 C 31 % 1025,6 hPa 0,0 l/m 4,0 km/h (1 Bft) W 270 6,1 C 30,3 C 9,3 km/h (2 Bft)
16.07.2013 17:45 24,1 C 33 % 1025,6 hPa 0,0 l/m 4,0 km/h (1 Bft) N-NW 337 6,8 C 30,3 C 2,9 km/h (1 Bft)
16.07.2013 17:50 24,1 C 33 % 1025,6 hPa 0,0 l/m 3,9 km/h (1 Bft) NO 45 6,8 C 30,8 C 5,5 km/h (1 Bft)
16.07.2013 17:55 24,2 C 32 % 1025,6 hPa 0,0 l/m 3,7 km/h (1 Bft) W-NW 292 6,5 C 30,4 C 4,5 km/h (1 Bft)
16.07.2013 18:00 24,1 C 33 % 1025,4 hPa 0,0 l/m 4,0 km/h (1 Bft) N 360 6,8 C 30,3 C 1,8 km/h (1 Bft)
16.07.2013 18:05 23,9 C 36 % 1025,4 hPa 0,0 l/m 3,2 km/h (1 Bft) NW 315 7,9 C 30,6 C 0,0 km/h (0 Bft)
16.07.2013 18:10 23,9 C 34 % 1025,4 hPa 0,0 l/m 2,6 km/h (1 Bft) N 360 7,1 C 31,0 C 2,6 km/h (1 Bft)
16.07.2013 18:15 24,1 C 33 % 1025,4 hPa 0,0 l/m 2,3 km/h (1 Bft) N-NW 337 6,8 C 31,3 C 3,5 km/h (1 Bft)
16.07.2013 18:20 24,1 C 34 % 1025,1 hPa 0,0 l/m 1,9 km/h (1 Bft) O 90 7,2 C 31,3 C 1,6 km/h (1 Bft)
16.07.2013 18:25 24,2 C 32 % 1025,1 hPa 0,0 l/m 2,4 km/h (1 Bft) NW 315 6,5 C 31,2 C 7,4 km/h (2 Bft)
16.07.2013 18:30 24,2 C 33 % 1025,1 hPa 0,0 l/m 2,3 km/h (1 Bft) N-NO 22 6,9 C 30,9 C 0,0 km/h (0 Bft)
16.07.2013 18:35 24,0 C 34 % 1025,1 hPa 0,0 l/m 2,7 km/h (1 Bft) N-NO 22 7,2 C 31,0 C 4,7 km/h (1 Bft)
16.07.2013 18:40 24,0 C 32 % 1024,7 hPa 0,0 l/m 2,6 km/h (1 Bft) N-NW 337 6,3 C 30,8 C 4,2 km/h (1 Bft)
16.07.2013 18:45 23,9 C 35 % 1024,7 hPa 0,0 l/m 2,4 km/h (1 Bft) N-NW 337 7,5 C 30,8 C 1,6 km/h (1 Bft)
16.07.2013 18:50 24,0 C 32 % 1024,7 hPa 0,0 l/m 2,3 km/h (1 Bft) O-NO 67 6,3 C 30,7 C 3,9 km/h (1 Bft)
16.07.2013 18:55 23,8 C 32 % 1024,7 hPa 0,0 l/m 2,9 km/h (1 Bft) N 360 6,1 C 30,3 C 1,9 km/h (1 Bft)
16.07.2013 19:00 23,8 C 32 % 1024,3 hPa 0,0 l/m 2,7 km/h (1 Bft) S 180 6,1 C 30,2 C 1,6 km/h (1 Bft)
16.07.2013 19:05 23,4 C 34 % 1024,3 hPa 0,0 l/m 2,3 km/h (1 Bft) W 270 6,6 C 30,2 C 2,1 km/h (1 Bft)
16.07.2013 19:10 23,1 C 36 % 1024,3 hPa 0,0 l/m 2,3 km/h (1 Bft) N-NO 22 7,2 C 30,1 C 2,4 km/h (1 Bft)
16.07.2013 19:15 22,9 C 37 % 1024,3 hPa 0,0 l/m 1,6 km/h (1 Bft) O-NO 67 7,4 C 30,2 C 2,4 km/h (1 Bft)
16.07.2013 19:20 23,0 C 35 % 1024,2 hPa 0,0 l/m 1,4 km/h (1 Bft) N 360 6,7 C 30,1 C 1,9 km/h (1 Bft)
16.07.2013 19:25 22,8 C 38 % 1024,2 hPa 0,0 l/m 1,9 km/h (1 Bft) N-NO 22 7,7 C 29,8 C 1,9 km/h (1 Bft)
16.07.2013 19:30 22,8 C 38 % 1024,2 hPa 0,0 l/m 2,4 km/h (1 Bft) N 360 7,7 C 29,5 C 2,1 km/h (1 Bft)
16.07.2013 19:35 22,7 C 37 % 1024,2 hPa 0,0 l/m 1,6 km/h (1 Bft) N 360 7,3 C 29,4 C 0,0 km/h (0 Bft)
16.07.2013 19:40 22,7 C 38 % 1024,2 hPa 0,0 l/m 0,6 km/h (0 Bft) N 360 7,6 C 29,6 C 2,4 km/h (1 Bft)
16.07.2013 19:45 22,4 C 38 % 1024,2 hPa 0,0 l/m 0,8 km/h (0 Bft) N-NW 337 7,4 C 29,3 C 2,3 km/h (1 Bft)
16.07.2013 19:50 22,2 C 39 % 1024,2 hPa 0,0 l/m 0,8 km/h (0 Bft) N-NO 22 7,6 C 29,1 C 0,0 km/h (0 Bft)
16.07.2013 19:55 22,0 C 39 % 1024,2 hPa 0,0 l/m 0,5 km/h (0 Bft) O 90 7,4 C 28,9 C 0,0 km/h (0 Bft)
16.07.2013 20:00 22,0 C 39 % 1024,4 hPa 0,0 l/m 0,8 km/h (0 Bft) N-NO 22 7,4 C 28,6 C 5,5 km/h (1 Bft)
16.07.2013 20:05 21,9 C 40 % 1024,4 hPa 0,0 l/m 1,4 km/h (1 Bft) O 90 7,7 C 27,9 C 2,4 km/h (1 Bft)
16.07.2013 20:10 21,6 C 40 % 1024,4 hPa 0,0 l/m 1,4 km/h (1 Bft) O-NO 67 7,4 C 27,6 C 2,3 km/h (1 Bft)
16.07.2013 20:15 21,3 C 42 % 1024,4 hPa 0,0 l/m 1,1 km/h (1 Bft) NO 45 7,9 C 26,8 C 2,4 km/h (1 Bft)
16.07.2013 20:20 21,3 C 42 % 1024,2 hPa 0,0 l/m 2,1 km/h (1 Bft) NO 45 7,9 C 26,0 C 3,5 km/h (1 Bft)
16.07.2013 20:25 21,1 C 43 % 1024,2 hPa 0,0 l/m 2,9 km/h (1 Bft) O 90 8,0 C 24,8 C 3,1 km/h (1 Bft)
16.07.2013 20:30 20,7 C 44 % 1024,2 hPa 0,0 l/m 2,4 km/h (1 Bft) O 90 8,0 C 24,2 C 2,3 km/h (1 Bft)
16.07.2013 20:35 19,5 C 47 % 1024,2 hPa 0,0 l/m 1,3 km/h (1 Bft) NO 45 7,9 C 23,2 C 0,0 km/h (0 Bft)
16.07.2013 20:40 19,0 C 48 % 1024,3 hPa 0,0 l/m 0,6 km/h (0 Bft) O-NO 67 7,7 C 22,9 C 1,8 km/h (1 Bft)
16.07.2013 20:45 19,6 C 48 % 1024,3 hPa 0,0 l/m 1,3 km/h (1 Bft) O 90 8,3 C 22,1 C 3,5 km/h (1 Bft)
16.07.2013 20:50 19,7 C 47 % 1024,3 hPa 0,0 l/m 2,1 km/h (1 Bft) NO 45 8,1 C 21,6 C 3,2 km/h (1 Bft)
16.07.2013 20:55 19,6 C 48 % 1024,3 hPa 0,0 l/m 2,4 km/h (1 Bft) O-NO 67 8,3 C 20,7 C 0,0 km/h (0 Bft)
16.07.2013 21:00 19,3 C 49 % 1024,4 hPa 0,0 l/m 1,9 km/h (1 Bft) NO 45 8,3 C 19,8 C 0,0 km/h (0 Bft)
16.07.2013 21:05 18,2 C 52 % 1024,4 hPa 0,0 l/m 0,8 km/h (0 Bft) O-NO 67 8,2 C 18,8 C 1,6 km/h (1 Bft)
16.07.2013 21:10 17,7 C 54 % 1024,4 hPa 0,0 l/m 0,5 km/h (0 Bft) O-SO 112 8,3 C 18,2 C 0,0 km/h (0 Bft)
16.07.2013 21:15 17,7 C 55 % 1024,4 hPa 0,0 l/m 0,5 km/h (0 Bft) O 90 8,5 C 17,4 C 1,6 km/h (1 Bft)
16.07.2013 21:20 17,5 C 56 % 1024,3 hPa 0,0 l/m 0,5 km/h (0 Bft) O 90 8,6 C 17,0 C 1,6 km/h (1 Bft)
16.07.2013 21:25 17,1 C 58 % 1024,3 hPa 0,0 l/m 0,5 km/h (0 Bft) O-NO 67 8,8 C 16,5 C 0,0 km/h (0 Bft)
16.07.2013 21:30 17,2 C 58 % 1024,3 hPa 0,0 l/m 0,8 km/h (0 Bft) O-NO 67 8,9 C 16,3 C 2,1 km/h (1 Bft)
16.07.2013 21:35 16,4 C 59 % 1024,3 hPa 0,0 l/m 0,5 km/h (0 Bft) O-SO 112 8,4 C 15,9 C 0,0 km/h (0 Bft)
16.07.2013 21:40 16,2 C 60 % 1024,5 hPa 0,0 l/m 0,3 km/h (0 Bft) O-SO 112 8,4 C 15,6 C 0,0 km/h (0 Bft)
16.07.2013 21:45 16,2 C 60 % 1024,5 hPa 0,0 l/m 0,3 km/h (0 Bft) O 90 8,4 C 15,3 C 0,0 km/h (0 Bft)
16.07.2013 21:50 15,7 C 62 % 1024,5 hPa 0,0 l/m 0,6 km/h (0 Bft) O 90 8,4 C 15,1 C 0,0 km/h (0 Bft)
16.07.2013 21:55 15,3 C 65 % 1024,5 hPa 0,0 l/m 0,6 km/h (0 Bft) O 90 8,8 C 14,9 C 1,6 km/h (1 Bft)
16.07.2013 22:00 15,1 C 66 % 1024,6 hPa 0,0 l/m 0,6 km/h (0 Bft) O 90 8,8 C 14,7 C 0,0 km/h (0 Bft)
16.07.2013 22:05 14,9 C 66 % 1024,6 hPa 0,0 l/m 0,2 km/h (0 Bft) O-SO 112 8,6 C 14,3 C 0,0 km/h (0 Bft)
16.07.2013 22:10 14,8 C 67 % 1024,6 hPa 0,0 l/m 0,0 km/h (0 Bft) O-SO 112 8,7 C 14,2 C 0,0 km/h (0 Bft)
16.07.2013 22:15 14,3 C 67 % 1024,6 hPa 0,0 l/m 0,0 km/h (0 Bft) O 90 8,3 C 13,8 C 0,0 km/h (0 Bft)
16.07.2013 22:20 14,1 C 67 % 1024,6 hPa 0,0 l/m 0,0 km/h (0 Bft) O 90 8,1 C 13,5 C 0,0 km/h (0 Bft)
16.07.2013 22:25 13,8 C 68 % 1024,6 hPa 0,0 l/m 0,0 km/h (0 Bft) O-SO 112 8,0 C 13,2 C 0,0 km/h (0 Bft)
16.07.2013 22:30 13,9 C 68 % 1024,6 hPa 0,0 l/m 0,0 km/h (0 Bft) O-SO 112 8,1 C 13,2 C 0,0 km/h (0 Bft)
16.07.2013 22:35 13,3 C 69 % 1024,6 hPa 0,0 l/m 0,0 km/h (0 Bft) O-SO 112 7,7 C 13,0 C 0,0 km/h (0 Bft)
16.07.2013 22:40 13,2 C 69 % 1024,6 hPa 0,0 l/m 0,0 km/h (0 Bft) O-SO 112 7,6 C 12,8 C 0,0 km/h (0 Bft)
16.07.2013 22:45 13,1 C 70 % 1024,6 hPa 0,0 l/m 0,0 km/h (0 Bft) O-SO 112 7,8 C 12,5 C 0,0 km/h (0 Bft)
16.07.2013 22:50 13,0 C 70 % 1024,6 hPa 0,0 l/m 0,0 km/h (0 Bft) O-SO 112 7,7 C 12,4 C 0,0 km/h (0 Bft)
16.07.2013 22:55 12,8 C 72 % 1024,6 hPa 0,0 l/m 0,0 km/h (0 Bft) O-SO 112 7,9 C 12,3 C 0,0 km/h (0 Bft)
16.07.2013 23:00 12,6 C 72 % 1024,4 hPa 0,0 l/m 0,0 km/h (0 Bft) O-SO 112 7,7 C 12,2 C 0,0 km/h (0 Bft)
16.07.2013 23:05 12,4 C 73 % 1024,4 hPa 0,0 l/m 0,0 km/h (0 Bft) O-SO 112 7,7 C 12,0 C 0,0 km/h (0 Bft)
16.07.2013 23:10 12,3 C 73 % 1024,4 hPa 0,0 l/m 0,0 km/h (0 Bft) O-SO 112 7,6 C 11,9 C 0,0 km/h (0 Bft)
16.07.2013 23:15 12,6 C 75 % 1024,4 hPa 0,0 l/m 0,0 km/h (0 Bft) O-SO 112 8,3 C 11,7 C 0,0 km/h (0 Bft)
16.07.2013 23:20 12,6 C 75 % 1024,4 hPa 0,0 l/m 0,0 km/h (0 Bft) O-SO 112 8,3 C 11,7 C 0,0 km/h (0 Bft)
16.07.2013 23:25 13,1 C 75 % 1024,4 hPa 0,0 l/m 1,1 km/h (1 Bft) O-NO 67 8,8 C 11,7 C 3,5 km/h (1 Bft)
16.07.2013 23:30 13,2 C 76 % 1024,4 hPa 0,0 l/m 1,4 km/h (1 Bft) NO 45 9,1 C 12,0 C 0,0 km/h (0 Bft)
16.07.2013 23:35 13,4 C 74 % 1024,4 hPa 0,0 l/m 2,1 km/h (1 Bft) O 90 8,9 C 12,0 C 5,3 km/h (1 Bft)
16.07.2013 23:40 13,2 C 74 % 1024,4 hPa 0,0 l/m 2,6 km/h (1 Bft) O-NO 67 8,7 C 12,3 C 2,4 km/h (1 Bft)
16.07.2013 23:45 13,3 C 75 % 1024,4 hPa 0,0 l/m 3,1 km/h (1 Bft) O 90 9,0 C 12,3 C 2,7 km/h (1 Bft)
16.07.2013 23:50 12,8 C 75 % 1024,4 hPa 0,0 l/m 2,6 km/h (1 Bft) O-SO 112 8,5 C 12,2 C 2,6 km/h (1 Bft)
16.07.2013 23:55 12,7 C 75 % 1024,4 hPa 0,0 l/m 1,1 km/h (1 Bft) O-SO 112 8,4 C 12,1 C 0,0 km/h (0 Bft)
_ Min-Zeit 05:45 17:40 20:35 - 23:20 - - 17:40 05:45 23:55
Minimum _ 8,2 C 31 % 1024,2 hPa - 0,0 km/h (0 Bft) - - 6,1 C 7,7 C 0,0 km/h (0 Bft)
_ Max-Zeit 15:55 06:10 12:15 23:55 17:10 - - 08:30 18:20 12:30
Maximum _ 27,3 C 89 % 1026,8 hPa 0,0 l/m 6,3 km/h
W (2 Bft)
- - 13,7 C 31,3 C 13,4 km/h
N (3 Bft)
Durchschnitt _ 18,9 C 56 % 1025,5 hPa #0,0 l/m 2,1 km/h (1 Bft) N-NW - 8,6 C 20,1 C 2,8 km/h (1 Bft)